TimeAKDT,TemperatureF,Dew PointF,Humidity,Sea Level PressureIn,VisibilityMPH,Wind Direction,Wind SpeedMPH,Gust SpeedMPH,PrecipitationIn,Events,Conditions,WindDirDegrees,DateUTC
12:31 AM,39.2,37.4,93,29.92,10.0,East,4.6,-,N/A,,Mostly Cloudy,100,2012-10-17 08:31:00
12:53 AM,39.0,37.0,93,29.93,10.0,East,8.1,-,N/A,,Mostly Cloudy,90,2012-10-17 08:53:00
1:53 AM,39.9,37.9,93,29.93,10.0,ESE,8.1,-,N/A,,Overcast,110,2012-10-17 09:53:00
2:06 AM,41.0,37.4,87,29.93,10.0,East,6.9,-,N/A,,Overcast,100,2012-10-17 10:06:00
2:32 AM,39.2,37.4,93,29.92,10.0,East,6.9,-,N/A,,Overcast,100,2012-10-17 10:32:00
2:53 AM,42.1,37.9,85,29.93,9.0,ESE,12.7,17.3,0.00,Rain,Light Rain,120,2012-10-17 10:53:00
3:12 AM,41.0,35.6,81,29.93,10.0,Variable,3.5,-,0.01,Rain,Light Rain,0,2012-10-17 11:12:00
3:43 AM,39.2,35.6,87,29.92,10.0,East,6.9,-,0.02,,Overcast,80,2012-10-17 11:43:00
3:53 AM,39.9,36.0,86,29.91,10.0,East,8.1,-,0.02,,Overcast,90,2012-10-17 11:53:00
4:53 AM,42.1,36.0,79,29.89,10.0,ESE,13.8,-,0.01,,Overcast,120,2012-10-17 12:53:00
5:53 AM,43.0,35.1,74,29.86,10.0,ESE,13.8,-,N/A,,Scattered Clouds,110,2012-10-17 13:53:00
6:53 AM,44.1,34.0,68,29.82,10.0,ESE,15.0,-,N/A,,Scattered Clouds,120,2012-10-17 14:53:00
7:53 AM,44.1,35.1,71,29.78,10.0,ESE,15.0,20.7,N/A,,Overcast,120,2012-10-17 15:53:00
8:53 AM,44.1,36.0,73,29.74,10.0,ESE,15.0,24.2,0.00,Rain,Light Rain,120,2012-10-17 16:53:00
9:53 AM,44.1,36.0,73,29.70,10.0,ESE,13.8,-,0.00,Rain,Light Rain,120,2012-10-17 17:53:00
10:53 AM,44.1,37.0,76,29.66,8.0,ESE,20.7,28.8,0.01,Rain,Light Rain,120,2012-10-17 18:53:00
11:53 AM,43.0,37.0,80,29.62,6.0,ESE,25.3,32.2,0.03,Rain,Light Rain,110,2012-10-17 19:53:00
12:16 PM,42.8,37.4,81,29.61,5.0,ESE,21.9,28.8,0.02,Rain,Light Rain,110,2012-10-17 20:16:00
12:53 PM,43.0,37.0,80,29.60,5.0,ESE,16.1,29.9,0.05,Rain,Light Rain,110,2012-10-17 20:53:00
1:53 PM,41.0,37.0,86,29.61,4.0,ESE,15.0,25.3,0.13,Rain,Rain,110,2012-10-17 21:53:00
2:53 PM,41.0,37.0,86,29.62,5.0,ESE,12.7,-,0.13,Rain,Rain,110,2012-10-17 22:53:00
3:27 PM,39.2,37.4,93,29.61,10.0,East,10.4,-,0.02,Rain,Light Rain,80,2012-10-17 23:27:00
3:53 PM,39.9,37.9,93,29.60,10.0,ESE,12.7,-,0.03,Rain,Light Rain,110,2012-10-17 23:53:00
4:31 PM,39.2,37.4,93,29.62,4.0,SE,5.8,-,0.03,Rain,Rain,130,2012-10-18 00:31:00
4:53 PM,39.9,37.9,93,29.62,5.0,Variable,4.6,-,0.06,Rain,Light Rain,0,2012-10-18 00:53:00
5:53 PM,39.9,37.9,93,29.63,7.0,East,5.8,-,0.02,Rain,Light Rain,80,2012-10-18 01:53:00
6:11 PM,39.2,37.4,93,29.64,5.0,East,4.6,-,0.02,Rain,Rain,100,2012-10-18 02:11:00
6:22 PM,39.2,37.4,93,29.64,3.0,Calm,Calm,-,0.06,Rain,Heavy Rain,0,2012-10-18 02:22:00
6:41 PM,39.2,37.4,93,29.64,10.0,East,4.6,-,0.06,,Overcast,80,2012-10-18 02:41:00
6:53 PM,39.0,37.0,93,29.64,10.0,East,5.8,-,0.06,,Overcast,90,2012-10-18 02:53:00
7:53 PM,37.9,37.0,97,29.65,10.0,East,5.8,-,N/A,,Mostly Cloudy,80,2012-10-18 03:53:00
8:53 PM,37.9,36.0,93,29.66,10.0,East,4.6,-,N/A,,Clear,90,2012-10-18 04:53:00
9:53 PM,37.9,36.0,93,29.68,10.0,East,6.9,-,N/A,,Partly Cloudy,100,2012-10-18 05:53:00
10:53 PM,37.0,36.0,96,29.70,10.0,East,6.9,-,N/A,,Clear,100,2012-10-18 06:53:00
11:53 PM,37.9,37.0,97,29.71,10.0,East,5.8,-,0.00,,Mostly Cloudy,100,2012-10-18 07:53:00